Time,TemperatureF,DewpointF,PressureIn,WindDirection,WindDirectionDegrees,WindSpeedMPH,WindSpeedGustMPH,Humidity,HourlyPrecipIn,Conditions,Clouds,dailyrainin,SoftwareType,DateUTC
2013-11-28 00:22:00,32.0,27.0,-100.00,WNW,293,1.0,-999.0,81,-99.99,,,-99.99,,2013-11-28 06:22:00,
2013-11-28 00:52:00,31.0,27.0,-100.00,NW,315,2.0,-999.0,84,-99.99,,,-99.99,,2013-11-28 06:52:00,
2013-11-28 01:21:00,31.0,27.0,-100.00,NW,315,2.0,-999.0,86,-99.99,,,-99.99,,2013-11-28 07:21:00,
2013-11-28 01:52:00,31.0,27.0,-100.00,NW,315,2.0,-999.0,87,-99.99,,,-99.99,,2013-11-28 07:52:00,
2013-11-28 02:11:00,31.0,28.0,-100.00,WNW,293,3.0,-999.0,86,-99.99,,,-99.99,,2013-11-28 08:11:00,
2013-11-28 02:21:00,32.0,28.0,-100.00,WSW,248,3.0,-999.0,85,-99.99,,,-99.99,,2013-11-28 08:21:00,
2013-11-28 02:53:00,31.0,28.0,-100.00,WNW,293,3.0,-999.0,86,-99.99,,,-99.99,,2013-11-28 08:53:00,
2013-11-28 03:21:00,31.0,28.0,-100.00,WSW,248,3.0,-999.0,87,-99.99,,,-99.99,,2013-11-28 09:21:00,
2013-11-28 03:53:00,31.0,27.0,-100.00,WNW,293,5.0,-999.0,87,-99.99,,,-99.99,,2013-11-28 09:53:00,
2013-11-28 04:23:00,31.0,27.0,-100.00,SW,225,3.0,-999.0,86,-99.99,,,-99.99,,2013-11-28 10:23:00,
2013-11-28 04:52:00,30.0,27.0,-100.00,West,270,4.0,-999.0,88,-99.99,,,-99.99,,2013-11-28 10:52:00,
2013-11-28 05:22:00,29.0,26.0,-100.00,NW,315,5.0,-999.0,89,-99.99,,,-99.99,,2013-11-28 11:22:00,
2013-11-28 05:52:00,28.0,24.0,-100.00,SW,225,3.0,-999.0,86,-99.99,,,-99.99,,2013-11-28 11:52:00,
2013-11-28 06:22:00,28.0,25.0,-100.00,West,270,3.0,-999.0,86,-99.99,,,-99.99,,2013-11-28 12:22:00,
2013-11-28 06:52:00,28.0,24.0,-100.00,SSW,203,2.0,-999.0,86,-99.99,,,-99.99,,2013-11-28 12:52:00,
2013-11-28 07:21:00,28.0,24.0,-100.00,WNW,293,3.0,-999.0,85,-99.99,,,-99.99,,2013-11-28 13:21:00,
2013-11-28 07:52:00,28.0,24.0,-100.00,SSW,203,2.0,-999.0,85,-99.99,,,-99.99,,2013-11-28 13:52:00,
2013-11-28 08:22:00,28.0,24.0,-100.00,South,180,2.0,-999.0,84,-99.99,,,-99.99,,2013-11-28 14:22:00,
2013-11-28 08:52:00,28.0,24.0,-100.00,WNW,293,2.0,-999.0,84,-99.99,,,-99.99,,2013-11-28 14:52:00,
2013-11-28 09:21:00,28.0,24.0,-100.00,SSE,158,2.0,-999.0,83,-99.99,,,-99.99,,2013-11-28 15:21:00,
2013-11-28 09:54:00,29.0,24.0,-100.00,SSE,158,1.0,-999.0,83,-99.99,,,-99.99,,2013-11-28 15:54:00,
2013-11-28 10:23:00,29.0,25.0,-100.00,NW,315,2.0,-999.0,82,-99.99,,,-99.99,,2013-11-28 16:23:00,
2013-11-28 10:53:00,29.0,24.0,-100.00,WNW,293,2.0,-999.0,81,-99.99,,,-99.99,,2013-11-28 16:53:00,
2013-11-28 11:23:00,30.0,24.0,-100.00,West,270,1.0,-999.0,80,-99.99,,,-99.99,,2013-11-28 17:23:00,
2013-11-28 11:52:00,30.0,24.0,-100.00,ESE,113,1.0,-999.0,78,-99.99,,,-99.99,,2013-11-28 17:52:00,
2013-11-28 12:22:00,30.0,24.0,-100.00,SSW,203,1.0,-999.0,77,-99.99,,,-99.99,,2013-11-28 18:22:00,
2013-11-28 12:52:00,31.0,24.0,-100.00,NW,315,2.0,-999.0,77,-99.99,,,-99.99,,2013-11-28 18:52:00,
2013-11-28 13:22:00,31.0,24.0,-100.00,WNW,293,1.0,-999.0,76,-99.99,,,-99.99,,2013-11-28 19:22:00,
2013-11-28 13:52:00,31.0,24.0,-100.00,South,180,1.0,-999.0,75,-99.99,,,-99.99,,2013-11-28 19:52:00,
2013-11-28 14:21:00,31.0,24.0,-100.00,SW,225,0.0,-999.0,74,-99.99,,,-99.99,,2013-11-28 20:21:00,
2013-11-28 14:52:00,31.0,23.0,-100.00,WSW,248,1.0,-999.0,74,-99.99,,,-99.99,,2013-11-28 20:52:00,
2013-11-28 15:21:00,31.0,23.0,-100.00,West,270,1.0,-999.0,72,-99.99,,,-99.99,,2013-11-28 21:21:00,
2013-11-28 15:53:00,31.0,23.0,-100.00,WSW,248,0.0,-999.0,73,-99.99,,,-99.99,,2013-11-28 21:53:00,
2013-11-28 16:23:00,31.0,23.0,-100.00,SSE,158,0.0,-999.0,72,-99.99,,,-99.99,,2013-11-28 22:23:00,
2013-11-28 16:53:00,31.0,23.0,-100.00,SW,225,0.0,-999.0,74,-99.99,,,-99.99,,2013-11-28 22:53:00,
2013-11-28 17:21:00,30.0,23.0,-100.00,SSE,158,1.0,-999.0,75,-99.99,,,-99.99,,2013-11-28 23:21:00,
2013-11-28 17:52:00,30.0,24.0,-100.00,SSE,158,1.0,-999.0,78,-99.99,,,-99.99,,2013-11-28 23:52:00,
2013-11-28 18:21:00,29.0,24.0,-100.00,ESE,113,1.0,-999.0,82,-99.99,,,-99.99,,2013-11-29 00:21:00,
2013-11-28 18:52:00,29.0,24.0,-100.00,SE,135,1.0,-999.0,83,-99.99,,,-99.99,,2013-11-29 00:52:00,
2013-11-28 19:21:00,29.0,25.0,-100.00,SSE,158,1.0,-999.0,84,-99.99,,,-99.99,,2013-11-29 01:21:00,
2013-11-28 19:52:00,29.0,25.0,-100.00,SSE,158,1.0,-999.0,82,-99.99,,,-99.99,,2013-11-29 01:52:00,
2013-11-28 20:21:00,29.0,25.0,-100.00,SSE,158,1.0,-999.0,85,-99.99,,,-99.99,,2013-11-29 02:21:00,
2013-11-28 20:52:00,27.0,24.0,-100.00,SSE,158,1.0,-999.0,87,-99.99,,,-99.99,,2013-11-29 02:52:00,
2013-11-28 21:21:00,26.0,23.0,-100.00,SSE,158,1.0,-999.0,89,-99.99,,,-99.99,,2013-11-29 03:21:00,
2013-11-28 21:53:00,25.0,23.0,-100.00,SSE,158,1.0,-999.0,91,-99.99,,,-99.99,,2013-11-29 03:53:00,
2013-11-28 22:23:00,25.0,23.0,-100.00,SSE,158,1.0,-999.0,91,-99.99,,,-99.99,,2013-11-29 04:23:00,
2013-11-28 22:52:00,25.0,22.0,-100.00,SSE,158,1.0,-999.0,91,-99.99,,,-99.99,,2013-11-29 04:52:00,
2013-11-28 23:22:00,25.0,23.0,-100.00,SSE,158,2.0,-999.0,90,-99.99,,,-99.99,,2013-11-29 05:22:00,
2013-11-28 23:53:00,26.0,23.0,-100.00,SSE,158,1.0,-999.0,90,-99.99,,,-99.99,,2013-11-29 05:53:00,